Time,TemperatureF,DewpointF,PressureIn,WindDirection,WindDirectionDegrees,WindSpeedMPH,WindSpeedGustMPH,Humidity,HourlyPrecipIn,Conditions,Clouds,dailyrainin,SoftwareType,DateUTC
2013-01-24 00:02:00,20.0,13.0,30.12,SSW,202,1.0,2.0,75,0.00,,,0.00,,2013-01-24 07:02:00,
2013-01-24 00:11:00,20.0,13.0,30.12,SSW,202,1.0,2.0,75,0.00,,,0.00,,2013-01-24 07:11:00,
2013-01-24 00:22:00,21.0,13.0,30.11,South,180,2.0,3.0,70,0.00,,,0.00,,2013-01-24 07:22:00,
2013-01-24 00:32:00,21.0,12.0,30.11,SSE,157,2.0,2.0,69,0.00,,,0.00,,2013-01-24 07:32:00,
2013-01-24 00:42:00,21.0,12.0,30.11,SSE,157,2.0,2.0,69,0.00,,,0.00,,2013-01-24 07:42:00,
2013-01-24 00:52:00,21.0,13.0,30.11,SSE,157,2.0,2.0,72,0.00,,,0.00,,2013-01-24 07:52:00,
2013-01-24 01:01:00,21.0,14.0,30.11,SSE,157,3.0,4.0,73,0.00,,,0.00,,2013-01-24 08:01:00,
2013-01-24 01:11:00,21.0,14.0,30.11,SSE,157,3.0,4.0,73,0.00,,,0.00,,2013-01-24 08:11:00,
2013-01-24 01:22:00,20.0,13.0,30.11,SSE,157,1.0,2.0,75,0.00,,,0.00,,2013-01-24 08:22:00,
2013-01-24 01:32:00,21.0,13.0,30.10,SSE,157,0.0,2.0,71,0.00,,,0.00,,2013-01-24 08:32:00,
2013-01-24 01:42:00,21.0,13.0,30.10,SSE,157,0.0,2.0,71,0.00,,,0.00,,2013-01-24 08:42:00,
2013-01-24 01:52:00,21.0,13.0,30.10,SSE,157,0.0,0.0,71,0.00,,,0.00,,2013-01-24 08:52:00,
2013-01-24 02:02:00,22.0,13.0,30.10,ESE,112,2.0,2.0,67,0.00,,,0.00,,2013-01-24 09:02:00,
2013-01-24 02:12:00,22.0,13.0,30.10,ESE,112,2.0,2.0,67,0.00,,,0.00,,2013-01-24 09:12:00,
2013-01-24 02:22:00,23.0,13.0,30.10,ESE,112,1.0,2.0,65,0.00,,,0.00,,2013-01-24 09:22:00,
2013-01-24 02:32:00,22.0,13.0,30.10,SSE,157,2.0,2.0,68,0.00,,,0.00,,2013-01-24 09:32:00,
2013-01-24 02:42:00,22.0,13.0,30.10,SSE,157,2.0,2.0,68,0.00,,,0.00,,2013-01-24 09:42:00,
2013-01-24 02:52:00,22.0,13.0,30.09,SSE,157,2.0,3.0,67,0.00,,,0.00,,2013-01-24 09:52:00,
2013-01-24 03:02:00,21.0,15.0,30.10,South,180,3.0,4.0,76,0.00,,,0.00,,2013-01-24 10:02:00,
2013-01-24 03:11:00,21.0,15.0,30.10,South,180,3.0,4.0,76,0.00,,,0.00,,2013-01-24 10:11:00,
2013-01-24 03:20:00,21.0,14.0,30.10,NNE,22,1.0,1.0,73,0.00,,,0.00,,2013-01-24 10:20:00,
2013-01-24 03:22:00,21.0,15.0,30.11,South,180,2.0,2.0,78,0.00,,,0.00,,2013-01-24 10:22:00,
2013-01-24 03:32:00,21.0,14.0,30.10,NNE,22,1.0,1.0,73,0.00,,,0.00,,2013-01-24 10:32:00,
2013-01-24 03:42:00,21.0,14.0,30.10,NNE,22,1.0,1.0,73,0.00,,,0.00,,2013-01-24 10:42:00,
2013-01-24 03:52:00,21.0,14.0,30.10,NNE,22,1.0,1.0,73,0.00,,,0.00,,2013-01-24 10:52:00,
2013-01-24 04:02:00,21.0,14.0,30.10,NNE,22,1.0,1.0,73,0.00,,,0.00,,2013-01-24 11:02:00,
2013-01-24 04:11:00,21.0,14.0,30.10,NNE,22,1.0,1.0,73,0.00,,,0.00,,2013-01-24 11:11:00,
2013-01-24 09:03:00,27.0,17.0,30.11,SSE,157,1.0,2.0,65,-99.99,,,0.00,,2013-01-24 16:03:00,
2013-01-24 09:12:00,27.0,17.0,30.11,SSE,157,1.0,2.0,65,-99.99,,,0.00,,2013-01-24 16:12:00,
2013-01-24 09:22:00,29.0,17.0,30.12,SSE,157,2.0,3.0,60,-99.99,,,0.00,,2013-01-24 16:22:00,
2013-01-24 09:33:00,28.0,20.0,30.13,ENE,67,4.0,6.0,72,-99.99,,,0.00,,2013-01-24 16:33:00,
2013-01-24 09:42:00,28.0,20.0,30.13,ENE,67,4.0,6.0,72,-99.99,,,0.00,,2013-01-24 16:42:00,
2013-01-24 10:01:00,29.0,18.0,30.14,East,90,1.0,2.0,64,0.00,,,0.00,,2013-01-24 17:01:00,
2013-01-24 10:11:00,29.0,18.0,30.14,East,90,1.0,2.0,64,0.00,,,0.00,,2013-01-24 17:11:00,
2013-01-24 10:21:00,29.0,19.0,30.14,East,90,2.0,3.0,67,0.00,,,0.00,,2013-01-24 17:21:00,
2013-01-24 10:31:00,31.0,20.0,30.14,SE,135,2.0,2.0,64,0.00,,,0.00,,2013-01-24 17:31:00,
2013-01-24 10:42:00,31.0,20.0,30.14,SE,135,2.0,2.0,64,0.00,,,0.00,,2013-01-24 17:42:00,
2013-01-24 10:51:00,32.0,20.0,30.14,SSW,202,2.0,2.0,61,0.00,,,0.00,,2013-01-24 17:51:00,
2013-01-24 11:01:00,32.0,21.0,30.14,SW,225,2.0,2.0,63,0.00,,,0.00,,2013-01-24 18:01:00,
2013-01-24 11:11:00,34.0,21.0,30.15,West,270,1.0,2.0,58,0.00,,,0.00,,2013-01-24 18:11:00,
2013-01-24 11:21:00,34.0,21.0,30.15,West,270,1.0,2.0,58,0.00,,,0.00,,2013-01-24 18:21:00,
2013-01-24 11:31:00,34.0,20.0,30.16,NW,315,3.0,4.0,56,0.00,,,0.00,,2013-01-24 18:31:00,
2013-01-24 11:41:00,34.0,20.0,30.16,NW,315,3.0,4.0,56,0.00,,,0.00,,2013-01-24 18:41:00,
2013-01-24 11:53:00,34.0,20.0,30.16,NW,315,2.0,4.0,57,0.00,,,0.00,,2013-01-24 18:53:00,
2013-01-24 12:01:00,33.0,22.0,30.16,NW,315,2.0,4.0,63,0.00,,,0.00,,2013-01-24 19:01:00,
2013-01-24 12:11:00,34.0,22.0,30.16,North,360,3.0,6.0,61,0.00,,,0.00,,2013-01-24 19:11:00,
2013-01-24 12:21:00,34.0,22.0,30.16,North,360,3.0,6.0,61,0.00,,,0.00,,2013-01-24 19:21:00,
2013-01-24 12:32:00,33.0,21.0,30.15,North,360,5.0,6.0,61,0.00,,,0.00,,2013-01-24 19:32:00,
2013-01-24 12:41:00,33.0,21.0,30.14,North,360,2.0,2.0,61,0.00,,,0.00,,2013-01-24 19:41:00,
2013-01-24 12:52:00,33.0,21.0,30.14,North,360,2.0,2.0,61,0.00,,,0.00,,2013-01-24 19:52:00,
2013-01-24 13:01:00,33.0,22.0,30.14,North,360,1.0,2.0,63,0.00,,,0.00,,2013-01-24 20:01:00,
2013-01-24 13:11:00,33.0,21.0,30.13,North,360,0.0,0.0,61,0.00,,,0.00,,2013-01-24 20:11:00,
2013-01-24 13:21:00,33.0,21.0,30.13,North,360,0.0,0.0,61,0.00,,,0.00,,2013-01-24 20:21:00,
2013-01-24 13:31:00,34.0,20.0,30.12,North,360,0.0,0.0,56,0.00,,,0.00,,2013-01-24 20:31:00,
2013-01-24 13:42:00,33.0,21.0,30.12,SSE,157,1.0,2.0,62,0.00,,,0.00,,2013-01-24 20:42:00,
2013-01-24 13:52:00,33.0,21.0,30.12,SSE,157,1.0,2.0,62,0.00,,,0.00,,2013-01-24 20:52:00,
2013-01-24 14:01:00,34.0,22.0,30.12,ESE,112,4.0,5.0,62,0.00,,,0.00,,2013-01-24 21:01:00,
2013-01-24 14:11:00,34.0,23.0,30.13,ESE,112,3.0,4.0,65,0.00,,,0.00,,2013-01-24 21:11:00,
2013-01-24 14:21:00,34.0,23.0,30.13,ESE,112,3.0,4.0,65,0.00,,,0.00,,2013-01-24 21:21:00,
2013-01-24 14:32:00,34.0,22.0,30.13,SSE,157,3.0,4.0,61,0.00,,,0.00,,2013-01-24 21:32:00,
2013-01-24 14:42:00,34.0,22.0,30.13,SSE,157,3.0,4.0,61,0.00,,,0.00,,2013-01-24 21:42:00,
2013-01-24 14:52:00,35.0,23.0,30.13,SE,135,3.0,4.0,61,0.00,,,0.00,,2013-01-24 21:52:00,
2013-01-24 15:02:00,35.0,23.0,30.13,ESE,112,2.0,3.0,62,0.00,,,0.00,,2013-01-24 22:02:00,
2013-01-24 15:11:00,36.0,23.0,30.14,SE,135,1.0,2.0,60,0.00,,,0.00,,2013-01-24 22:11:00,
2013-01-24 15:21:00,36.0,23.0,30.14,SE,135,1.0,2.0,60,0.00,,,0.00,,2013-01-24 22:21:00,
2013-01-24 15:31:00,36.0,21.0,30.14,SE,135,1.0,2.0,55,0.00,,,0.00,,2013-01-24 22:31:00,
2013-01-24 15:41:00,36.0,21.0,30.14,SE,135,1.0,2.0,55,0.00,,,0.00,,2013-01-24 22:41:00,
2013-01-24 15:52:00,36.0,22.0,30.14,ESE,112,1.0,2.0,57,0.00,,,0.00,,2013-01-24 22:52:00,
2013-01-24 16:01:00,37.0,21.0,30.14,ESE,112,1.0,2.0,53,0.00,,,0.00,,2013-01-24 23:01:00,
2013-01-24 16:11:00,37.0,21.0,30.14,ESE,112,1.0,2.0,53,0.00,,,0.00,,2013-01-24 23:11:00,
2013-01-24 16:21:00,37.0,21.0,30.14,ESE,112,1.0,2.0,52,0.00,,,0.00,,2013-01-24 23:21:00,
2013-01-24 16:31:00,36.0,22.0,30.14,North,360,1.0,2.0,56,0.00,,,0.00,,2013-01-24 23:31:00,
2013-01-24 16:42:00,36.0,22.0,30.14,North,360,1.0,2.0,56,0.00,,,0.00,,2013-01-24 23:42:00,
2013-01-24 16:52:00,35.0,23.0,30.13,NW,315,1.0,2.0,62,0.00,,,0.00,,2013-01-24 23:52:00,
2013-01-24 17:01:00,34.0,24.0,30.13,NW,315,5.0,6.0,66,0.00,,,0.00,,2013-01-25 00:01:00,
2013-01-24 17:11:00,34.0,24.0,30.13,NW,315,5.0,6.0,66,0.00,,,0.00,,2013-01-25 00:11:00,
2013-01-24 17:21:00,33.0,24.0,30.13,WNW,292,4.0,6.0,70,0.00,,,0.00,,2013-01-25 00:21:00,
2013-01-24 17:31:00,33.0,25.0,30.12,WNW,292,2.0,3.0,73,0.00,,,0.00,,2013-01-25 00:31:00,
2013-01-24 17:41:00,33.0,25.0,30.12,WNW,292,2.0,3.0,73,0.00,,,0.00,,2013-01-25 00:41:00,
2013-01-24 17:51:00,33.0,25.0,30.13,NW,315,4.0,4.0,71,0.00,,,0.00,,2013-01-25 00:51:00,
2013-01-24 18:01:00,33.0,25.0,30.13,WNW,292,2.0,2.0,73,0.00,,,0.00,,2013-01-25 01:01:00,
2013-01-24 18:11:00,33.0,24.0,30.13,WNW,292,2.0,2.0,70,0.00,,,0.00,,2013-01-25 01:11:00,
2013-01-24 18:21:00,33.0,24.0,30.13,WNW,292,2.0,2.0,70,0.00,,,0.00,,2013-01-25 01:21:00,
2013-01-24 18:31:00,33.0,24.0,30.12,WNW,292,0.0,0.0,69,0.00,,,0.00,,2013-01-25 01:31:00,
2013-01-24 18:41:00,33.0,24.0,30.12,WNW,292,0.0,0.0,69,0.00,,,0.00,,2013-01-25 01:41:00,
2013-01-24 18:51:00,33.0,27.0,30.12,ENE,67,2.0,2.0,77,0.00,,,0.00,,2013-01-25 01:51:00,
2013-01-24 19:01:00,32.0,26.0,30.13,ENE,67,4.0,6.0,78,0.00,,,0.00,,2013-01-25 02:01:00,
2013-01-24 19:11:00,32.0,26.0,30.13,ENE,67,4.0,6.0,78,0.00,,,0.00,,2013-01-25 02:11:00,
2013-01-24 19:21:00,32.0,25.0,30.13,East,90,2.0,3.0,75,0.00,,,0.00,,2013-01-25 02:21:00,
2013-01-24 19:31:00,31.0,26.0,30.14,South,180,2.0,2.0,81,0.00,,,0.00,,2013-01-25 02:31:00,
2013-01-24 19:41:00,31.0,26.0,30.14,South,180,2.0,2.0,81,0.00,,,0.00,,2013-01-25 02:41:00,
2013-01-24 19:52:00,31.0,26.0,30.14,South,180,2.0,2.0,81,0.00,,,0.00,,2013-01-25 02:52:00,
2013-01-24 20:01:00,31.0,25.0,30.13,South,180,2.0,2.0,78,0.00,,,0.00,,2013-01-25 03:01:00,
2013-01-24 20:11:00,31.0,25.0,30.13,South,180,1.0,2.0,78,0.00,,,0.00,,2013-01-25 03:11:00,
2013-01-24 20:21:00,31.0,25.0,30.13,South,180,1.0,2.0,78,0.00,,,0.00,,2013-01-25 03:21:00,
2013-01-24 20:32:00,31.0,25.0,30.14,South,180,1.0,2.0,79,0.00,,,0.00,,2013-01-25 03:32:00,
2013-01-24 20:41:00,31.0,25.0,30.14,South,180,1.0,2.0,79,0.00,,,0.00,,2013-01-25 03:41:00,
2013-01-24 20:52:00,32.0,25.0,30.13,South,180,2.0,2.0,75,0.00,,,0.00,,2013-01-25 03:52:00,
2013-01-24 21:01:00,33.0,24.0,30.14,SE,135,2.0,3.0,69,0.00,,,0.00,,2013-01-25 04:01:00,
2013-01-24 21:11:00,32.0,24.0,30.14,SE,135,2.0,2.0,72,0.00,,,0.00,,2013-01-25 04:11:00,
2013-01-24 21:22:00,32.0,24.0,30.14,SE,135,2.0,2.0,72,0.00,,,0.00,,2013-01-25 04:22:00,
2013-01-24 21:31:00,33.0,25.0,30.14,SE,135,2.0,2.0,71,0.00,,,0.00,,2013-01-25 04:31:00,
2013-01-24 21:41:00,33.0,25.0,30.14,SE,135,2.0,2.0,71,0.00,,,0.00,,2013-01-25 04:41:00,
2013-01-24 21:51:00,32.0,25.0,30.14,SSE,157,1.0,2.0,75,0.00,,,0.00,,2013-01-25 04:51:00,
2013-01-24 22:03:00,33.0,26.0,30.14,SSE,157,2.0,3.0,74,0.00,,,0.00,,2013-01-25 05:03:00,
2013-01-24 22:12:00,32.0,27.0,30.12,South,180,3.0,4.0,81,0.00,,,0.00,,2013-01-25 05:12:00,
2013-01-24 22:22:00,32.0,27.0,30.12,South,180,3.0,4.0,81,0.00,,,0.00,,2013-01-25 05:22:00,
2013-01-24 22:31:00,31.0,26.0,30.12,South,180,2.0,2.0,82,0.00,,,0.00,,2013-01-25 05:31:00,
2013-01-24 22:42:00,31.0,26.0,30.12,South,180,2.0,2.0,82,0.00,,,0.00,,2013-01-25 05:42:00,
2013-01-24 22:51:00,31.0,27.0,30.12,South,180,0.0,0.0,84,0.00,,,0.00,,2013-01-25 05:51:00,
2013-01-24 23:01:00,30.0,26.0,30.13,WSW,247,1.0,1.0,84,0.00,,,0.00,,2013-01-25 06:01:00,
2013-01-24 23:11:00,30.0,26.0,30.13,WSW,247,1.0,1.0,84,0.00,,,0.00,,2013-01-25 06:11:00,
2013-01-24 23:21:00,31.0,26.0,30.13,WNW,292,0.0,0.0,83,0.00,,,0.00,,2013-01-25 06:21:00,
2013-01-24 23:31:00,31.0,26.0,30.14,WNW,292,0.0,1.0,83,0.00,,,0.00,,2013-01-25 06:31:00,
2013-01-24 23:41:00,31.0,27.0,30.14,WNW,292,0.0,1.0,85,0.00,,,0.00,,2013-01-25 06:41:00,
2013-01-24 23:51:00,31.0,27.0,30.14,WNW,292,0.0,1.0,85,0.00,,,0.00,,2013-01-25 06:51:00,